DW2789 Weather Reports


time (UTC)temp
C
wind
direction
speed
KPH
gust
KPH
rain 1hr
cm
rain 24hr
cm
rain mn
cm
humidity
%
barometer
mb
20260505121931 12 222 0.0 0.0 0.00 0.00 0.00 70 1009.5
20260505120934 12 222 0.0 0.0 0.00 0.00 0.00 69 1009.4
20260505115936 13 222 0.0 0.0 0.00 0.00 0.00 69 1009.3
20260505114939 13 222 0.0 0.0 0.00 0.00 0.00 69 1009.1
20260505112942 13 222 0.0 0.0 0.00 0.00 0.00 66 1009.0
20260505111943 13 222 0.0 0.0 0.00 0.00 0.00 67 1008.9
20260505110931 13 222 0.0 3.2 0.00 0.00 0.00 65 1008.8
20260505101942 14 222 0.0 0.0 0.00 0.00 0.00 66 1008.3
20260505100945 14 222 0.0 0.0 0.00 0.00 0.00 65 1008.3
20260505095931 14 222 0.0 6.4 0.00 0.00 0.00 63 1008.2
20260505094954 15 222 3.2 9.7 0.00 0.00 0.00 62 1008.2
20260505092932 15 222 0.0 0.0 0.00 0.00 0.00 64 1008.0
20260505091933 15 222 0.0 0.0 0.00 0.00 0.00 63 1008.1
20260505090940 15 222 0.0 0.0 0.00 0.00 0.00 61 1008.1
20260505085941 15 222 0.0 0.0 0.00 0.00 0.00 61 1008.0
20260505084927 15 222 0.0 0.0 0.00 0.00 0.00 62 1007.9
20260505083934 15 222 0.0 0.0 0.00 0.00 0.00 64 1007.9
20260505082939 15 222 0.0 0.0 0.00 0.00 0.00 64 1007.9
20260505081941 15 222 0.0 0.0 0.00 0.00 0.00 64 1007.8
20260505080942 15 222 0.0 0.0 0.00 0.00 0.00 64 1007.7
20260505075941 15 222 0.0 0.0 0.00 0.00 0.00 64 1007.6
20260505074944 15 222 0.0 0.0 0.00 0.00 0.00 63 1007.6
20260505073942 16 222 0.0 0.0 0.00 0.00 0.00 61 1007.6
20260505072944 16 222 0.0 14.5 0.00 0.00 0.00 61 1007.5
20260505071931 17 222 0.0 0.0 0.00 0.00 0.00 58 1007.1
20260505070933 17 223 0.0 0.0 0.00 0.00 0.00 58 1007.0
20260505065937 17 222 0.0 0.0 0.00 0.00 0.00 58 1006.8
20260505064943 17 223 1.6 12.9 0.00 0.00 0.00 57 1006.6
20260505063928 17 223 3.2 12.9 0.00 0.00 0.00 57 1006.7
20260505062931 17 223 3.2 14.5 0.00 0.00 0.00 57 1006.6
20260505061958 17 223 4.8 12.9 0.00 0.00 0.00 57 1006.6
20260505061002 17 222 6.4 14.5 0.00 0.00 0.00 57 1006.5
20260505054937 18 222 8.0 14.5 0.00 0.00 0.00 56 1006.5
20260505053939 18 222 9.7 16.1 0.00 0.00 0.00 57 1006.5
20260505052927 18 217 8.0 16.1 0.00 0.00 0.00 57 1006.5
20260505051928 18 217 8.0 20.9 0.00 0.00 0.00 57 1006.5
20260505050958 18 217 11.3 20.9 0.00 0.00 0.00 56 1006.5
20260505041000 17 146 0.0 0.0 0.00 0.00 0.00 60 1006.5
20260505034940 18 146 0.0 0.0 0.00 0.00 0.00 59 1006.3
20260505033942 19 146 0.0 0.0 0.00 0.00 0.00 56 1006.3
20260505033003 20 146 0.0 0.0 0.00 0.00 0.00 54 1006.2
20260505031944 21 146 0.0 0.0 0.00 0.00 0.00 52 1006.0
20260505025924 23 146 0.0 0.0 0.00 0.00 0.00 49 1005.8
20260505024930 23 146 0.0 0.0 0.00 0.00 0.00 49 1005.8
20260505023934 26 146 0.0 0.0 0.00 0.00 0.00 49 1005.7
20260505022937 27 146 0.0 0.0 0.00 0.00 0.00 46 1005.7
20260505021941 27 146 0.0 0.0 0.00 0.00 0.00 45 1005.7
20260505020927 27 146 0.0 0.0 0.00 0.00 0.00 41 1005.8
20260505015947 28 146 0.0 0.0 0.00 0.00 0.00 46 1005.8
20260505014947 28 146 0.0 0.0 0.00 0.00 0.00 41 1005.9
20260505013946 28 146 0.0 0.0 0.00 0.00 0.00 34 1006.0
20260505012946 28 146 0.0 0.0 0.00 0.00 0.00 34 1006.0
20260505011947 28 146 0.0 0.0 0.00 0.00 0.00 37 1006.1
20260505010944 28 146 0.0 0.0 0.00 0.00 0.00 35 1006.2
20260505005940 29 146 0.0 0.0 0.00 0.00 0.00 32 1006.2
20260505004931 29 146 0.0 0.0 0.00 0.00 0.00 31 1006.3
20260505003936 28 146 0.0 0.0 0.00 0.00 0.00 31 1006.3
20260505002939 29 146 0.0 0.0 0.00 0.00 0.00 32 1006.4
20260505001925 30 146 0.0 0.0 0.00 0.00 0.00 30 1006.5
20260505000936 29 146 0.0 0.0 0.00 0.00 0.00 34 1006.5
20260504235941 28 146 0.0 0.0 0.00 0.00 0.00 37 1006.5
20260504234927 28 146 0.0 0.0 0.00 0.00 0.00 32 1006.5
20260504233931 28 146 0.0 6.4 0.00 0.00 0.00 35 1006.5
20260504232942 27 146 0.0 6.4 0.00 0.00 0.00 32 1006.5
20260504231928 27 146 0.0 6.4 0.00 0.00 0.00 33 1006.6
20260504230950 27 146 0.0 0.0 0.00 0.00 0.00 34 1006.7
20260504225932 27 146 0.0 6.4 0.00 0.00 0.00 33 1006.7
20260504224934 27 146 0.0 4.8 0.00 0.00 0.00 33 1006.9
20260504223939 27 146 0.0 11.3 0.00 0.00 0.00 36 1007.0
20260504222939 27 146 0.0 0.0 0.00 0.00 0.00 37 1007.0
20260504221940 27 146 0.0 4.8 0.00 0.00 0.00 35 1007.0
20260504220940 28 146 0.0 0.0 0.00 0.00 0.00 35 1007.1
20260504215944 27 146 0.0 0.0 0.00 0.00 0.00 39 1007.3
20260504214928 27 146 0.0 0.0 0.00 0.00 0.00 42 1007.5
20260504213954 27 146 0.0 0.0 0.00 0.00 0.00 39 1007.7
20260504212936 26 146 0.0 14.5 0.00 0.00 0.00 36 1007.7
20260504211946 26 146 0.0 8.0 0.00 0.00 0.00 42 1007.8
20260504210929 26 146 0.0 0.0 0.00 0.00 0.00 42 1007.9
20260504205932 26 146 1.6 11.3 0.00 0.00 0.00 45 1007.9
20260504204953 26 146 4.8 12.9 0.00 0.00 0.00 44 1007.9
20260504203934 26 146 0.0 12.9 0.00 0.00 0.00 43 1008.0
20260504202942 26 146 4.8 11.3 0.00 0.00 0.00 45 1008.0
20260504201925 26 146 3.2 11.3 0.00 0.00 0.00 42 1008.0
20260504200931 26 146 4.8 11.3 0.00 0.00 0.00 44 1008.1
20260504195954 26 146 6.4 11.3 0.00 0.00 0.00 42 1008.0
20260504194932 25 146 0.0 0.0 0.00 0.00 0.00 44 1008.1
20260504193955 25 146 1.6 9.7 0.00 0.00 0.00 44 1008.2
20260504192938 25 146 0.0 0.0 0.00 0.00 0.00 46 1008.2
20260504191938 24 146 0.0 0.0 0.00 0.00 0.00 47 1008.3
20260504190939 24 146 0.0 0.0 0.00 0.00 0.00 46 1008.3
20260504190003 23 146 0.0 12.9 0.00 0.00 0.00 47 1008.4
20260504184938 23 146 0.0 0.0 0.00 0.00 0.00 49 1008.5
20260504183940 23 146 0.0 0.0 0.00 0.00 0.00 49 1008.6
20260504182942 23 146 0.0 0.0 0.00 0.00 0.00 50 1008.7
20260504181949 23 146 0.0 4.8 0.00 0.00 0.00 46 1008.7
20260504180930 23 146 4.8 11.3 0.00 0.00 0.00 46 1008.8
20260504175935 22 146 0.0 12.9 0.00 0.00 0.00 48 1008.7
20260504174937 22 146 6.4 12.9 0.00 0.00 0.00 50 1008.7
20260504173927 22 146 3.2 12.9 0.00 0.00 0.00 49 1008.6
20260504172930 22 146 1.6 11.3 0.00 0.00 0.00 48 1008.5
20260504171953 22 146 1.6 14.5 0.00 0.00 0.00 46 1008.6
20260504170935 22 146 6.4 14.5 0.00 0.00 0.00 50 1008.6
20260504150931 17 146 0.0 0.0 0.00 0.00 0.00 54 1008.5
20260504140937 15 146 3.2 12.9 0.00 0.00 0.00 55 1008.3